[[{"header":{"parameterUnit":"m.s-1","parameterCategory":1,"la1":30.2991,"la2":30.254,"lo1":-89.0895,"lo2":-89.0444,"dy":0.0017,"dx":0.0017,"nx":28,"ny":28,"refTime":"2025-07-22T03:00:00:Z","depth":0,"parameterNumber":2,"parameterNumberName":"U-component_of_WINDS"},"data":[0,0,0,0,0,0,0,0,0,0,0,0,0,0,0,0,0,0,0,0,0,0,0,0,0,0,0,0,0,0,0,0,0,0,0,0,0,0,0,0,0,0,0,0,0,0,0,0,0,0,0,0,0,0,0,0,0,0,3.3585,3.3587,0,3.3726,3.3727,3.3729,3.3678,3.3675,3.3672,3.3668,3.3817,3.3824,3.3831,0,0,0,0,0,0,0,0,0,0,0,0,0,3.3275,3.3281,3.3585,3.3587,3.3588,3.3726,3.3728,3.3729,3.3678,3.3675,3.3671,3.3667,3.3815,3.3823,3.3832,0,0,0,0,0,0,0,0,0,0,0,0,0,3.3413,3.3283,3.3585,3.3579,3.358,3.3725,3.3728,3.373,3.3679,3.3674,3.367,3.3665,3.3812,3.3822,3.3833,3.3993,0,0,3.3864,3.3869,0,0,0,0,0,0,0,0,3.3405,3.3424,3.3578,3.358,3.3581,3.3679,3.3673,3.3818,3.368,3.3642,3.3668,3.3663,3.3776,3.3789,3.3826,3.4,3.4006,3.3865,3.3872,3.3876,3.3879,0,0,0,0,0,0,0,3.3395,3.3418,3.3641,3.3581,3.3583,3.3571,3.3585,3.37,3.3734,3.3645,3.3641,3.3659,3.3775,3.3816,3.3829,3.4008,3.3865,3.3874,3.3881,3.3885,3.4321,3.4326,0,0,0,0,0,0,3.3385,3.341,3.3636,3.3645,3.3479,3.3581,3.3597,3.3653,3.3733,3.374,3.3663,3.3656,3.38,3.3817,3.3834,3.4027,3.3876,3.3886,3.3892,3.4315,3.4322,3.4328,0,0,0,0,0,0,3.3378,3.3405,3.3631,3.3527,3.3554,3.3591,3.3655,3.3658,3.3698,3.3746,3.3752,3.3697,3.3797,3.3819,3.3953,3.4031,3.3891,3.39,3.4309,3.4317,3.4325,3.4413,0,0,0,0,0,0,3.337,3.3403,3.3464,3.3528,3.356,3.3747,3.3659,3.3664,3.3716,3.3708,3.378,3.3788,3.3795,3.3938,3.3964,3.4043,3.3908,3.4302,3.4313,3.4322,3.4404,3.4423,3.444,0,0,0,0,0,3.3359,3.3484,3.3467,3.3495,3.3636,3.3751,3.377,3.3775,3.3722,3.3784,3.3814,3.3785,3.4018,3.3952,3.3981,3.4064,3.4297,3.431,3.4321,3.4396,3.442,3.444,0,0,0,0,0,0,3.3429,3.3492,3.3474,3.3624,3.3682,3.3742,3.382,3.38,3.3876,3.3866,3.387,3.3887,3.4025,3.4058,3.3983,3.4223,3.415,3.4168,3.4197,3.422,3.4238,3.4228,3.3917,0,0,0,0,0,3.3462,3.3549,3.36,3.3727,3.3757,3.3784,3.3834,3.3833,3.3894,3.3919,3.3959,3.4021,3.4108,3.4166,3.4249,3.4408,3.4423,3.4479,3.4498,3.4512,3.4529,3.4616,3.4642,3.4367,3.4367,3.4367,0,0,3.3531,3.3576,3.3631,3.3742,3.3787,3.3879,3.3805,3.3905,3.3973,3.3935,3.4063,3.4095,3.4165,3.4312,3.4379,3.4344,3.4608,3.4528,3.4539,3.4548,3.4631,3.4657,3.468,3.4375,3.4374,3.4372,0,0,3.3703,3.3746,3.3856,3.3903,3.3971,3.3988,3.4015,3.4078,3.4097,3.4226,3.4199,3.4281,3.4431,3.4481,3.4527,3.4718,3.4694,3.4745,3.4841,3.4926,3.4948,3.4967,3.5036,3.506,3.476,3.4761,3.4761,0,3.3781,3.3915,3.3916,3.4018,3.4068,3.4036,3.4149,3.4194,3.4287,3.4323,3.4282,3.4469,3.4514,3.4673,3.4719,3.4757,3.4788,3.4737,3.4944,3.4963,3.4981,3.5047,3.5073,3.4766,3.4766,3.4765,3.4765,0,3.4008,3.4102,3.4183,3.4272,3.4331,3.4438,3.4456,3.4516,3.451,3.4531,3.4663,3.4715,3.4808,3.4845,3.4841,3.5004,3.498,3.4942,3.4869,3.5013,3.5075,3.51,3.4775,3.4773,3.4771,3.4769,0,0,3.423,3.4316,3.4346,3.4386,3.446,3.4533,3.4639,3.4728,3.478,3.4845,3.4935,3.5062,3.5026,3.5078,3.5078,3.5153,3.5302,3.5105,3.5107,3.5141,3.5486,3.5515,3.5544,3.5286,3.5291,3.5294,3.548,0,3.4408,3.4592,3.4596,3.4765,3.4852,3.4823,3.4915,3.4971,3.4994,3.5072,3.5098,3.5188,3.5134,3.5165,3.5237,3.5268,3.5371,3.5255,3.5371,3.5375,3.5355,3.5577,3.5608,3.5781,3.5505,3.5509,3.5512,0,3.4642,3.4712,3.489,3.495,3.4987,3.507,3.5152,3.5227,3.529,3.5301,3.5358,3.5348,3.5457,3.5379,3.5531,3.5451,3.5499,3.5521,3.5528,3.554,3.5453,3.5596,3.5836,3.5863,3.555,3.5547,3.5544,0,3.4787,3.4927,3.5051,3.5086,3.5159,3.5218,3.5252,3.5309,3.5363,3.5435,3.547,3.5555,3.5601,3.5668,3.5681,3.5623,3.5833,3.5756,3.5846,3.5846,3.5893,3.589,3.6146,3.5922,3.5922,3.5921,3.5921,0,3.4986,3.5097,3.5117,3.5194,3.5316,3.532,3.5442,3.5471,3.5522,3.5605,3.5585,3.5664,3.5675,3.5757,3.5768,3.5892,3.5913,3.5927,3.5929,3.5929,3.5928,3.5961,3.595,3.5928,3.5927,3.5925,3.5924,0,3.517,3.5187,3.5321,3.5379,3.5396,3.5484,3.5534,3.5609,3.5628,3.5734,3.5759,3.5791,3.5886,3.5905,3.6018,3.6025,3.6173,3.6163,3.6152,3.6151,3.6241,3.6233,3.6528,3.6567,3.6317,3.632,3.6322,0,3.5296,3.538,3.5447,3.55,3.5536,3.5622,3.5676,3.5682,3.5739,3.5817,3.5882,3.5974,3.6049,3.6203,3.6237,3.6324,3.6316,3.6413,3.6329,3.6327,3.6318,3.6314,3.6322,3.643,3.6433,3.6435,3.6437,0,3.552,3.5524,3.5602,3.5683,3.5748,3.5812,3.5873,3.5919,3.5933,3.5999,3.6095,3.6153,3.6267,3.636,3.6446,3.6482,3.6463,3.6463,3.6488,3.649,3.6481,3.6488,3.6197,3.6456,3.6454,3.6453,3.6452,3.6451,3.568,3.5753,3.5811,3.5898,3.5944,3.6002,3.6074,3.6102,3.6182,3.6275,3.6274,3.6379,3.644,3.6554,3.6595,3.6679,3.6648,3.6685,3.6695,3.6704,3.6713,3.6467,3.6695,3.6694,3.6694,3.6693,3.6693,0,3.5903,3.5938,3.6018,3.6104,3.6173,3.6146,3.6212,3.6272,3.6365,3.6422,3.6495,3.6606,3.6696,3.6737,3.6826,3.6885,3.6878,3.6908,3.6905,3.6913,3.6735,3.6704,3.6912,3.6912,3.6912,3.6912,3.6912,3.6912,3.6027,3.6149,3.6161,3.6306,3.6341,3.6443,3.6483,3.6537,3.6582,3.6706,3.678,3.6805,3.6857,3.6949,3.7031,3.7041,3.7075,3.7109,3.7115,3.6948,3.6926,3.6905,3.6876,3.7116,3.7117,3.7287,3.7288,3.7289]},{"header":{"parameterUnit":"m.s-1","parameterCategory":1,"la1":30.2991,"la2":30.254,"lo1":-89.0895,"lo2":-89.0444,"dy":0.0017,"dx":0.0017,"nx":28,"ny":28,"refTime":"2025-07-22T03:00:00:Z","depth":0,"parameterNumber":3,"parameterNumberName":"V-component_of_WINDS"},"data":[0,0,0,0,0,0,0,0,0,0,0,0,0,0,0,0,0,0,0,0,0,0,0,0,0,0,0,0,0,0,0,0,0,0,0,0,0,0,0,0,0,0,0,0,0,0,0,0,0,0,0,0,0,0,0,0,0,0,0.0888,0.0888,0,0.0884,0.0884,0.0884,0.0859,0.0859,0.0858,0.0858,0.0856,0.0856,0.0857,0,0,0,0,0,0,0,0,0,0,0,0,0,0.0875,0.0875,0.0888,0.0888,0.0888,0.0884,0.0884,0.0884,0.0859,0.0859,0.0858,0.0857,0.0855,0.0856,0.0857,0,0,0,0,0,0,0,0,0,0,0,0,0,0.0877,0.0875,0.0888,0.0875,0.0874,0.0884,0.0884,0.0884,0.086,0.0859,0.0858,0.0857,0.0855,0.0856,0.0857,0.0879,0,0,0.0859,0.0859,0,0,0,0,0,0,0,0,0.0877,0.0877,0.0877,0.0876,0.0874,0.0871,0.0879,0.0882,0.086,0.0865,0.0858,0.0856,0.0862,0.0862,0.0863,0.0879,0.0879,0.0859,0.086,0.086,0.086,0,0,0,0,0,0,0,0.0877,0.0877,0.0886,0.0877,0.0875,0.087,0.0869,0.0879,0.0868,0.0864,0.0863,0.0862,0.0861,0.0862,0.0863,0.0879,0.0859,0.086,0.086,0.086,0.0914,0.0915,0,0,0,0,0,0,0.0878,0.0877,0.0886,0.0886,0.0873,0.0871,0.087,0.0873,0.0868,0.0867,0.0863,0.0861,0.0862,0.0862,0.0863,0.0889,0.086,0.0861,0.0861,0.0913,0.0914,0.0915,0,0,0,0,0,0,0.0878,0.0879,0.0886,0.0881,0.0882,0.0872,0.0876,0.0874,0.0875,0.0867,0.0865,0.0867,0.0861,0.0862,0.0875,0.0889,0.0861,0.0862,0.0912,0.0913,0.0915,0.0942,0,0,0,0,0,0,0.0878,0.0879,0.0888,0.0882,0.0882,0.0899,0.0877,0.0874,0.0876,0.0874,0.087,0.0869,0.086,0.0874,0.0876,0.0889,0.0862,0.0911,0.0912,0.0914,0.094,0.0944,0.0948,0,0,0,0,0,0.0877,0.0896,0.0888,0.0889,0.0892,0.09,0.09,0.0889,0.0877,0.0886,0.0881,0.0869,0.0887,0.0876,0.0878,0.0891,0.091,0.0912,0.0914,0.0938,0.0944,0.0948,0,0,0,0,0,0,0.0905,0.0895,0.0886,0.0903,0.0902,0.0896,0.0906,0.0895,0.0898,0.0896,0.0883,0.0882,0.0898,0.0896,0.0884,0.0913,0.0896,0.0899,0.0914,0.0919,0.0923,0.0923,0.0863,0,0,0,0,0,0.0912,0.0919,0.091,0.0926,0.0926,0.0916,0.0919,0.0911,0.0909,0.0909,0.0905,0.0905,0.091,0.0914,0.0919,0.0939,0.0938,0.095,0.0954,0.0957,0.096,0.097,0.0975,0.0922,0.0922,0.0922,0,0,0.0929,0.0924,0.0929,0.0931,0.093,0.0937,0.0916,0.0925,0.093,0.0911,0.0923,0.092,0.0919,0.0936,0.0943,0.0935,0.0974,0.096,0.0962,0.0963,0.0973,0.0978,0.0982,0.0924,0.0923,0.0923,0,0,0.0963,0.096,0.0973,0.0971,0.0969,0.0962,0.0965,0.096,0.0957,0.0969,0.0954,0.0961,0.0971,0.097,0.0972,0.1005,0.0994,0.1007,0.1028,0.1039,0.1043,0.1046,0.1059,0.1063,0.1009,0.1009,0.1009,0,0.0984,0.0994,0.0981,0.0991,0.0992,0.0974,0.0987,0.0986,0.0986,0.0988,0.0978,0.0989,0.0987,0.1004,0.1012,0.1013,0.1017,0.1007,0.1043,0.1047,0.105,0.1061,0.1066,0.1011,0.1011,0.101,0.101,0,0.102,0.1028,0.1038,0.1037,0.104,0.1051,0.1041,0.1045,0.1036,0.103,0.1043,0.104,0.1043,0.1046,0.1038,0.1062,0.1057,0.1045,0.1028,0.1057,0.1067,0.1072,0.1013,0.1012,0.1012,0.1012,0,0,0.1072,0.1063,0.1068,0.1067,0.1063,0.1068,0.1079,0.1081,0.1085,0.1085,0.1094,0.1103,0.1092,0.1093,0.1084,0.1094,0.112,0.1081,0.1081,0.1089,0.1147,0.1156,0.1161,0.1113,0.1114,0.1114,0.1147,0,0.1105,0.1122,0.1111,0.113,0.1137,0.1119,0.1128,0.1127,0.1121,0.1127,0.1121,0.1127,0.1112,0.1113,0.1121,0.1115,0.1132,0.1113,0.1122,0.1122,0.1123,0.1167,0.1177,0.1208,0.1151,0.1152,0.1152,0,0.1146,0.1147,0.1167,0.1161,0.1163,0.1172,0.1173,0.1178,0.1176,0.1172,0.1173,0.1162,0.1172,0.1155,0.1169,0.1156,0.1159,0.1157,0.1158,0.1159,0.1139,0.117,0.1218,0.1223,0.1159,0.1158,0.1158,0,0.1183,0.1189,0.1202,0.1202,0.1195,0.1201,0.1199,0.1195,0.1198,0.1199,0.1201,0.1204,0.1205,0.1208,0.1198,0.1186,0.1214,0.1195,0.1211,0.1211,0.1218,0.1218,0.1268,0.1219,0.1219,0.1219,0.1219,0,0.1221,0.1234,0.1218,0.1226,0.124,0.1226,0.1241,0.1236,0.1234,0.1241,0.1225,0.1232,0.1219,0.1224,0.1217,0.123,0.1231,0.1228,0.1226,0.123,0.123,0.1232,0.123,0.122,0.122,0.122,0.1219,0,0.1265,0.1254,0.1267,0.1259,0.1257,0.1268,0.1261,0.1269,0.1262,0.1271,0.1272,0.1262,0.1268,0.1258,0.1263,0.1258,0.1276,0.1271,0.1277,0.1276,0.1292,0.1291,0.1345,0.1352,0.1298,0.1298,0.1299,0,0.129,0.13,0.1293,0.1296,0.1294,0.1299,0.1302,0.1288,0.1291,0.1289,0.1297,0.1301,0.1304,0.1314,0.1308,0.1311,0.1306,0.1325,0.1307,0.131,0.1307,0.1307,0.1308,0.1329,0.133,0.133,0.1331,0,0.1337,0.1331,0.1334,0.1336,0.1339,0.1339,0.1339,0.1343,0.1329,0.1333,0.1338,0.1341,0.1345,0.135,0.1352,0.135,0.1338,0.1336,0.134,0.1344,0.1348,0.1347,0.1288,0.1335,0.1335,0.1334,0.1334,0.1334,0.1373,0.138,0.1376,0.138,0.1378,0.1378,0.1385,0.1378,0.1382,0.1385,0.1377,0.1384,0.1381,0.1383,0.1382,0.1388,0.1379,0.1385,0.1386,0.1388,0.1391,0.1346,0.1388,0.1388,0.1387,0.1387,0.1387,0,0.1419,0.1415,0.1419,0.1419,0.1422,0.141,0.1409,0.1412,0.1419,0.1417,0.142,0.1426,0.1431,0.1424,0.1427,0.1433,0.1428,0.1435,0.1435,0.1434,0.1398,0.1394,0.1439,0.1439,0.1439,0.1439,0.1439,0.1439,0.1443,0.1455,0.1449,0.146,0.1456,0.1463,0.1463,0.1463,0.1462,0.1469,0.1473,0.1468,0.1464,0.1467,0.1471,0.1469,0.1471,0.1479,0.1476,0.1442,0.1437,0.1432,0.1429,0.148,0.148,0.1512,0.1512,0.1512]}]]